Regional Weather Roundup
Issued by NWS

Home | Current Version | Previous Version | Text Only | Print | Product List | Glossary On
Versions: 1 2 3 4 5 6 7 8 9 10 11 12 13 14 15 16 17 18 19 20 21 22 23 24 25 26 27 28 29 30 31 32 33 34 35 36 37 38 39 40 41 42 43 44 45 46 47 48 49 50
000
ASUS45 KBOU 180407
RWRCO

WEATHER ROUNDUP FOR COLORADO
NATIONAL WEATHER SERVICE DENVER/BOULDER CO
1000 PM MDT FRI APR 17 2015

NOTE: "FAIR" INDICATES FEW OR NO CLOUDS BELOW 12000 FEET WITH NO
SIGNIFICANT WEATHER AND/OR OBSTRUCTIONS TO VISIBILITY.

COZ001>005-013-030-031-180500-
...NORTHWEST COLORADO...

CITY           SKY/WX    TMP DP  RH WIND       PRES   REMARKS
CRAIG          MOCLDY    37  34  89 NW3       30.02R
HAYDEN         MOCLDY    36  32  87 W5        30.02R
MEEKER         CLOUDY    37  34  89 MISG      30.04R
MOUNT WERNER   NOT AVBL
STEAMBOAT SPGS MOCLDY    36  22  57 CALM      30.02R
WALDEN         CLOUDY    30  27  86 NW5       30.06R WCI  25
$$

COZ006>008-011-180500-
...WEST CENTRAL VALLEYS...

CITY           SKY/WX    TMP DP  RH WIND       PRES   REMARKS
GRAND JUNCTION CLOUDY    36  36 100 CALM      30.05R
MONTROSE       LGT SNOW  33  32  96 SE5       30.06R FOG     WCI  29
EAGLE          PTCLDY    30  28  93 S3        30.08R
RIFLE          CLOUDY    36  34  92 CALM      30.06S
DELTA          LGT SNOW  36  34  94 NE8       30.07R
NUCLA          LGT SNOW  32  32 100 CALM      30.08R
$$

COZ017>023-064>068-180500-
...SOUTHWEST COLORADO...

CITY           SKY/WX    TMP DP  RH WIND       PRES   REMARKS
DURANGO        CLOUDY    37  22  54 SW6       30.04R
CORTEZ         LGT SNOW  34  33  96 NE6       30.05S FOG     WCI  29
PAGOSA SPRINGS CLOUDY    29  22  73 CALM      30.06R
TELLURIDE      LGT SNOW  26  25  95 CALM      30.05R
WOLF CREEK PAS FOG       14  12  92 SW16      30.06S VSB 1/4 WCI  -2
$$

COZ009-010-012-014-032>034-037-058>063-180500-
...CENTRAL COLORADO...

CITY           SKY/WX    TMP DP  RH WIND       PRES   REMARKS
ASPEN          MOCLDY    25  23  92 SW3       30.04S
BUENA VISTA    PTCLDY    22  15  76 NW9       30.05F WCI  11
COPPER MTN     MOCLDY    23  -2  33 E8        30.05S WCI  14
BERTHOUD PASS  LGT SNOW  14   5  67 E3        30.09R
COTTONWOOD PAS PTCLDY    27  18  69 W7        30.05F WCI  19
GUNNISON       MOCLDY    30  25  80 NE5       30.08R WCI  25
KREMMLING      PTCLDY    32  23  69 S3        30.05S
LEADVILLE      PTCLDY    13   8  81 NE5       30.04F WCI   5
MONARCH PASS     N/A     14  12  92 MISG      30.15S
SALIDA         CLOUDY    28  22  76 W8        30.14R WCI  20
SUNLIGHT       FLURRIES  21  19  93 E5        30.09S WCI  15
WILKERSON PASS CLOUDY    18  16  93 E3        30.07F
$$

COZ069>075-180500-
...SAN LUIS VALLEY/SANGRE DE CRISTO MOUNTAINS...

CITY           SKY/WX    TMP DP  RH WIND       PRES   REMARKS
ALAMOSA        MOCLDY    32  22  66 CALM      30.04R
LA VETA PASS   MOCLDY    21  12  68 MISG      30.03S
SAGUACHE       MOCLDY    30  27  86 NW7       30.05R WCI  23
$$

COZ035-036-038>040-180500-
...NORTHERN COLORADO FRONT RANGE...

CITY           SKY/WX    TMP DP  RH WIND       PRES   REMARKS
DENVER INTL AP CLOUDY    42  39  89 SE9       30.04R
DMNS CITY PARK   N/A     42  36  79 N3        30.05R
AURORA         MOCLDY    40  35  81 S8        30.04R
FRONT RANGE AP NOT AVBL
ERIE MUNI ARPT CLOUDY    42  37  83 N10       30.03F
BOULDER MUN AP CLOUDY    41  36  81 NW7       30.04F
CENTENNIAL     LGT RAIN  35  33  92 S7        30.05R FOG     WCI  29
BROOMFIELD     CLOUDY    41  37  87 NW12      30.03F
FORT COLLINS   CLOUDY    41  34  75 N14       30.07S
LONGMONT       CLOUDY    44  36  74 N6        30.07S
$$

COZ041-046-047-076>085-087-088-180500-
...PIKES PEAK/PALMER DIVIDE AND SOUTHERN FOOTHILLS...

CITY           SKY/WX    TMP DP  RH WIND       PRES   REMARKS
COLO. SPRINGS  CLOUDY    37  33  85 NW15      30.02F
A. F. ACADEMY  CLOUDY    32  32 100 NW6       30.02F WCI  26
ELLICOTT       CLOUDY   N/A N/A N/A NW6       29.99F
FALCON         CLOUDY    33  32  96 N10G20    30.02F WCI  25
FORT CARSON    MOCLDY    37  33  86 N15       30.00F
LIMON          CLOUDY    39  35  86 NW12      30.04R
MONUMENT HILL  FLURRIES  30  30 100 W6        30.03F WCI  24
TRINIDAD       MOCLDY    43  26  51 CALM      29.99R
$$

COZ042>045-048>051-090-091-180500-
...NORTHEAST COLORADO...

CITY           SKY/WX    TMP DP  RH WIND       PRES   REMARKS
GREELEY ARPT   CLOUDY    43  34  70 W12       30.03F
AKRON          LGT RAIN  41  39  93 N14       30.02R
BURLINGTON     PTCLDY    49  42  77 E17       29.96R
WRAY           CLOUDY    53  44  71 SE14G20   29.96S
STERLING       RAIN      43  41  93 N22G28    30.01R
HOLYOKE        CLOUDY    54  46  76 SE9G16    29.99R
FORT MORGAN    CLOUDY    41  37  88 N17G25    30.02R
$$

COZ086-089-092>099-180500-
...SOUTHEAST COLORADO...

CITY           SKY/WX    TMP DP  RH WIND       PRES   REMARKS
PUEBLO         PTCLDY    42  35  76 N15       29.99S
LA JUNTA       MOCLDY    46  37  71 NW10      29.96S
LAMAR          CLEAR     47  37  68 W5        29.95R
SPRINGFIELD      N/A     43  32  65 NW7       29.95S
$$


USA.gov is the U.S. government's official web portal to all federal, state and local government web resources and services.